Flag for Romania Weather past 2 weeks in Bucharest, Romania

Now
81 °F

Clear.


Feels Like: 82 °F
Forecast: 72 / 100 °F
Wind: 6 mph from East

Location: Bucharest / Imh

Current Time: Jul 30, 2015 at 12:09:10 AM

Latest Report: Jul 29, 2015 at 11:30 PM


Visibility: 10 mi

Pressure: 29.80 "Hg

Humidity: 54%

Dew point: 63 °F

Location of BucharestLocation

Historic Weather in Bucharest — Graph

°F

Bucharest temperature yesterday

Maximum temperature yesterday: 95 °F (at 4:00 PM)
Minimum temperature yesterday: 66 °F (at 6:00 AM)
Average temperature yesterday: 83 °F

Past Weeks' High & Low Weather Summary

 TemperatureHumidityPressure
High97 °F (Jul 20, 5:30 PM)100% (Jul 14, 11:30 PM)30.15 "Hg (Jul 14, 11:30 PM)
Low61 °F (Jul 15, 5:00 AM)20% (Jul 28, 6:00 PM)29.68 "Hg (Jul 27, 6:00 PM)
Average81 °F51%29.92 "Hg
* Reported Jul 14 11:00 PM — Jul 29 11:00 PM, Bucharest, Weather by CustomWeather, © 2015

Note: Actual official high and low records may vary slightly from our data, if they occured in-between our weather recording intervals... More about our weather records

Advertising

Bucharest weather history for previous 24 hours

 ConditionsComfort  
Time TempWeatherWind HumidityBarometerVisibility
11:00 PM
Wed, Jul 29
86 °FPassing clouds.5 mph46%29.77 "HgN/A
10:30 PM86 °FPassing clouds.6 mph46%29.77 "HgN/A
10:00 PM88 °FClear.9 mph43%29.77 "Hg10 mi
9:30 PM82 °FSunny.3 mph58%29.77 "Hg10 mi
9:00 PM84 °FWarm.5 mph55%29.74 "HgN/A
8:30 PM88 °FSunny.5 mph49%29.77 "Hg10 mi
8:00 PM91 °FPassing clouds.3 mph41%29.74 "HgN/A
7:30 PM93 °FPassing clouds.3 mph36%29.74 "HgN/A
7:00 PM95 °FPassing clouds.5 mph34%29.74 "HgN/A
6:30 PM95 °FSunny.2 mph32%29.74 "Hg10 mi
6:00 PM95 °FPassing clouds.3 mph32%29.77 "HgN/A
5:30 PM95 °FSunny.3 mph34%29.77 "Hg10 mi
5:00 PM93 °FSunny.3 mph36%29.77 "Hg10 mi
4:30 PM93 °FSunny.5 mph36%29.77 "Hg10 mi
4:00 PM95 °FPassing clouds.6 mph36%29.77 "HgN/A
3:30 PM93 °FExtremely hot.5 mph36%29.77 "HgN/A
3:00 PM91 °FHot.3 mph41%29.80 "HgN/A
2:30 PM91 °FPassing clouds.6 mph41%29.80 "HgN/A
2:00 PM91 °FSunny.6 mph38%29.80 "Hg10 mi
1:30 PM91 °FSunny.5 mph36%29.80 "Hg10 mi
1:00 PM90 °FPassing clouds.5 mph38%29.80 "HgN/A
12:30 PM90 °FPassing clouds.6 mph38%29.83 "HgN/A
12:00 PM86 °FPassing clouds.5 mph43%29.83 "HgN/A
11:30 AM86 °FPassing clouds.6 mph43%29.83 "HgN/A
11:00 AM84 °FPassing clouds.7 mph43%29.83 "HgN/A
10:30 AM82 °FPassing clouds.8 mph45%29.83 "HgN/A
10:00 AM79 °FPassing clouds.9 mph48%29.83 "HgN/A
9:30 AM79 °FPassing clouds.7 mph48%29.83 "HgN/A
9:00 AM75 °FPassing clouds.7 mph50%29.83 "HgN/A
8:30 AM75 °FPassing clouds.6 mph50%29.86 "HgN/A
8:00 AM72 °FPassing clouds.3 mph57%29.86 "HgN/A
7:30 AM70 °FSunny.2 mph60%29.86 "Hg10 mi
6:30 AM68 °FClear.3 mph64%29.83 "Hg10 mi
6:00 AM66 °FClear.1 mph68%29.83 "Hg10 mi
5:30 AM68 °FClear.2 mph64%29.83 "Hg10 mi
5:00 AM68 °FClear.3 mph60%29.83 "Hg10 mi
4:30 AM70 °FClear.3 mph57%29.83 "Hg10 mi
4:00 AM70 °FClear.3 mph57%29.83 "Hg10 mi
3:30 AM70 °FPassing clouds.No wind57%29.83 "HgN/A
3:00 AM72 °FClear.3 mph53%29.83 "Hg10 mi
2:30 AM70 °FClear.5 mph57%29.83 "Hg10 mi
2:00 AM72 °FClear.5 mph53%29.83 "Hg10 mi
12:00 AM75 °FClear.1 mph47%29.83 "Hg10 mi
Weather by CustomWeather, © 2015

See weather overviewHow to use our weather pages